Location: Unspecified
(0.0000°N, 0.0000°E)
Time: 17:18:26
(UTC+00:00)

Courier 1B Rocket - Pass Details

Date: 21 April 2021
Orbit: 920 x 1202 km, 28.3° (Epoch: 14 May)

Event Time Altitude Azimuth Distance (km) Brightness Sun altitude
Exits shadow 04:29:37 36° 243° (WSW) 1,802 5.8 -21.8°
Maximum altitude 04:31:37 42° 209° (SSW) 1,635 5.8 -21.3°
Drops below altitude 10° 04:38:41 10° 141° (SE) 3,034 7.9 -19.6°
Sets 04:41:37 0° 134° (SE) 3,957 8.7 -18.9°
